Wind_Speed
63 61 61 63 66 66 64 61 60 57 56 49 45 43 41 39 41 36 32 26 23 18 19 20 12 11 5 5 7 15 18 15 15 15 14 11 9 10 9 10 10 10 16 15
63 63 67 65 64 65 64 62 62 62 59 54 51 50 47 41 42 38 36 30 22 17 24 19 12 12 6 8 8 16 22 18 17 16 16 14 12 12 10 8 7 6 10 12
66 69 68 67 65 63 63 63 66 64 59 57 53 52 50 47 43 41 38 34 24 25 25 16 12 14 11 10 10 18 23 22 18 19 18 16 14 13 11 9 8 7 9 9
68 70 69 67 67 67 65 65 65 65 59 58 56 56 55 51 48 47 44 38 33 30 24 20 19 17 14 13 11 16 26 25 22 21 21 18 16 15 13 10 10 8 8 6
71 72 71 70 69 67 69 69 68 66 59 55 53 54 58 56 55 53 51 43 34 29 32 32 24 23 16 14 10 15 29 27 25 23 22 20 18 15 13 11 9 7 6 4
77 76 75 74 72 68 70 68 70 68 62 57 56 53 52 58 59 58 53 48 40 34 31 30 21 26 17 17 11 14 24 31 28 27 25 23 20 17 14 12 10 8 6 3
78 77 77 78 77 76 75 73 72 70 67 62 64 57 55 58 60 61 58 52 46 41 33 37 25 28 20 19 13 15 21 29 28 27 26 25 23 21 16 13 11 8 6 4
84 83 82 76 75 76 75 77 75 71 68 68 71 61 60 61 56 56 59 54 54 51 41 35 27 29 22 19 18 16 22 28 31 27 27 26 25 24 21 16 12 10 7 5
86 89 87 84 83 79 79 77 77 75 73 72 72 67 69 69 62 58 57 57 56 49 46 45 36 32 32 22 21 17 20 25 28 29 28 28 26 25 23 19 16 12 9 7
84 89 88 90 90 87 87 84 82 78 76 75 73 71 73 76 71 65 58 55 56 52 49 46 41 37 35 29 22 22 18 19 26 27 28 28 28 28 25 24 21 17 13 10
88 91 91 93 93 94 93 95 89 82 78 77 72 73 84 78 76 70 63 54 59 53 55 43 40 37 37 33 30 26 24 20 21 26 28 28 26 29 31 29 26 24 22 18
91 93 94 93 94 96 96 98 96 91 86 83 78 84 87 84 80 76 69 64 59 66 56 44 43 42 42 36 33 32 28 27 23 20 24 27 29 28 29 31 32 30 27 26
90 91 95 96 98 98 98 98 98 95 93 92 86 86 91 89 85 79 75 68 62 62 68 60 55 47 45 43 42 38 34 28 26 24 23 23 26 30 30 29 31 33 32 30
90 92 94 98 103 103 100 102 101 98 96 95 95 92 95 95 88 82 78 74 71 66 67 67 56 51 45 49 46 45 39 35 32 28 26 27 24 24 24 25 28 29 29 30
91 91 94 96 101 105 106 103 105 101 98 98 102 100 102 100 92 85 82 80 79 75 66 64 61 57 57 55 52 47 46 41 36 34 28 29 28 25 24 24 27 26 26 29
91 97 99 101 104 107 106 107 109 105 104 107 105 105 101 101 97 91 84 85 82 80 71 73 71 74 73 67 60 47 46 44 41 39 32 31 33 31 29 25 26 25 26 24
80 88 94 103 109 111 110 108 110 111 115 111 107 104 101 103 104 98 91 85 85 82 79 83 79 75 75 70 59 47 43 39 47 41 44 36 38 37 33 28 27 26 27 26
73 80 88 92 98 105 103 112 111 112 115 113 110 107 105 102 107 105 99 90 89 88 87 86 85 79 74 73 64 64 54 44 42 50 56 46 40 44 37 33 29 28 27 26
63 70 76 82 91 92 91 103 112 111 115 111 112 110 108 106 108 110 106 99 93 93 92 90 92 85 75 75 66 64 55 55 56 52 48 49 48 46 43 39 35 29 28 30
53 59 60 65 73 77 88 95 101 105 108 112 110 113 113 113 110 114 112 106 102 99 99 99 99 95 85 79 63 68 56 57 52 45 45 51 54 53 47 40 38 36 31 32
42 45 46 51 57 62 69 81 93 97 100 103 109 114 116 117 113 115 114 112 109 105 104 105 107 104 97 88 79 75 69 53 55 50 51 60 58 56 54 46 43 42 37 35
32 35 37 43 48 52 59 66 80 89 95 99 99 109 118 117 119 119 119 117 114 111 111 111 112 110 103 98 84 72 71 70 63 58 52 52 59 59 55 51 48 49 41 37
18 23 25 34 40 43 49 54 63 76 84 90 93 99 112 118 121 122 123 120 119 116 118 115 113 113 108 103 95 86 82 76 72 64 55 54 54 50 54 54 55 56 46 41
16 16 17 21 28 34 41 45 54 66 70 78 83 92 101 114 121 124 124 123 123 122 120 121 117 117 112 108 103 98 98 85 88 78 72 67 63 59 50 61 55 59 51 47
20 18 21 25 25 28 34 39 46 55 62 67 76 83 93 105 117 120 126 125 126 126 123 123 122 120 118 116 114 108 109 104 97 90 83 83 70 66 63 66 67 58 56 55
22 23 23 25 26 29 29 33 39 47 53 62 67 72 84 98 107 116 121 128 127 128 126 124 126 124 122 122 123 119 117 114 111 104 98 94 77 77 74 64 66 61 58 57
Wind_Direction
227 229 229 228 228 231 231 227 227 225 228 225 227 233 235 230 232 235 238 253 260 252 282 290 320 275 294 233 203 195 185 185 182 170 163 158 164 157 148 119 109 90 73 81
226 226 228 229 229 230 232 232 232 226 227 226 223 226 230 231 231 236 237 249 236 251 282 289 305 268 278 241 215 208 195 181 183 176 172 166 161 154 138 149 143 117 92 72
226 227 229 229 231 232 231 233 235 232 227 228 228 227 229 228 231 235 239 236 251 232 266 281 300 265 271 236 218 208 201 189 185 179 174 171 171 163 161 163 149 143 114 78
225 228 229 227 227 228 230 232 234 236 231 229 228 228 228 230 231 233 236 237 237 244 243 273 284 253 268 251 225 204 198 195 184 187 180 174 171 164 163 162 148 144 125 100
227 228 228 228 227 227 229 230 233 235 232 233 231 229 230 228 229 229 230 231 227 224 242 257 263 246 250 247 228 203 196 201 191 190 189 180 174 167 160 152 138 136 122 126
226 227 226 227 229 227 229 228 233 235 234 230 231 231 228 228 228 231 228 227 223 218 228 237 254 234 237 235 221 213 195 206 199 193 192 191 187 179 179 167 151 138 142 123
230 230 229 228 228 227 226 227 228 231 232 228 229 227 230 228 227 225 227 225 221 218 227 228 242 230 221 239 216 208 204 205 202 199 198 197 197 193 190 187 176 165 169 146
231 231 231 230 230 231 230 230 228 226 228 228 231 224 222 232 230 228 225 224 226 226 223 220 232 218 216 242 220 206 203 203 209 207 205 205 204 198 196 197 189 192 192 175
231 233 232 232 231 231 229 227 230 228 227 228 231 226 222 228 230 227 225 221 221 223 212 221 225 214 215 210 247 216 206 208 201 207 204 209 211 209 208 201 198 196 203 212
230 233 232 232 232 230 231 229 227 225 226 229 229 229 229 226 224 226 226 219 218 215 209 211 218 209 215 207 213 232 225 215 211 205 207 210 216 215 212 208 211 212 212 223
229 231 231 230 230 230 230 232 229 227 224 224 225 229 230 226 225 225 224 222 210 211 212 209 213 212 211 211 212 210 217 224 227 218 209 209 213 215 214 213 217 225 233 238
230 232 232 231 230 231 231 232 230 228 226 224 221 227 230 227 224 223 222 221 216 202 207 218 209 208 215 211 217 225 215 215 221 233 221 213 211 218 220 220 226 232 239 246
231 231 233 231 231 231 230 231 232 230 227 224 221 224 229 226 223 220 220 219 220 215 211 210 209 214 218 211 216 220 224 221 218 223 233 226 222 220 223 224 225 232 241 246
231 230 231 233 232 231 230 229 230 230 228 227 224 221 227 227 224 217 217 216 219 219 215 211 213 207 213 218 221 222 223 224 227 219 228 240 237 233 231 229 229 234 243 249
232 233 231 233 235 233 229 230 231 227 227 226 226 222 227 227 225 221 214 213 213 219 213 207 211 213 212 219 224 226 224 225 223 230 225 239 249 245 232 225 227 229 238 250
235 235 232 232 234 235 234 230 229 228 227 225 224 223 225 227 228 224 217 212 210 214 212 205 208 214 216 219 219 220 226 230 239 228 230 232 247 255 253 240 232 224 229 238
236 238 236 235 236 235 235 233 231 229 227 226 224 224 221 225 228 225 222 214 209 209 210 203 209 214 214 213 212 213 217 228 228 243 236 225 242 250 254 258 251 241 232 227
239 238 238 238 238 237 235 238 234 232 231 228 225 223 224 221 226 227 222 217 210 209 208 211 210 208 212 215 216 220 222 226 231 239 241 236 229 246 252 252 251 257 251 244
248 245 241 241 240 240 237 234 237 232 231 227 225 222 223 223 223 227 224 217 212 208 210 210 212 212 212 213 220 221 223 229 229 228 231 241 238 232 239 248 254 251 258 259
252 252 248 245 242 240 235 235 235 235 231 228 223 223 220 222 219 224 225 220 213 208 208 211 212 214 215 214 204 218 219 212 215 219 226 238 238 237 238 238 249 253 252 258
256 255 252 246 243 238 235 233 234 233 233 229 224 220 219 220 220 222 223 223 217 210 207 210 212 213 213 214 213 216 213 213 212 218 226 232 235 240 243 246 247 247 250 255
262 256 249 247 244 242 234 231 231 231 231 229 224 220 218 218 219 219 221 222 221 214 210 209 213 212 211 208 204 206 207 211 221 214 210 219 230 238 237 239 250 243 243 248
268 263 253 245 243 243 238 232 232 233 231 229 224 219 218 216 218 218 219 220 222 218 214 211 212 213 210 206 208 204 208 213 210 208 210 215 218 228 235 242 246 249 241 244
277 283 274 263 249 246 242 235 228 231 231 229 225 219 217 216 218 216 218 218 220 220 216 214 212 213 211 207 206 204 211 210 209 213 219 216 225 229 231 243 251 245 240 241
294 294 288 281 265 252 241 237 231 229 230 228 225 220 217 216 217 218 215 217 217 221 218 215 214 212 211 207 207 208 210 212 212 219 219 227 227 227 238 244 249 245 243 241
294 282 272 279 276 267 254 239 234 232 228 228 226 223 217 214 217 218 217 215 216 218 220 217 215 214 212 210 209 211 213 216 221 221 227 229 231 237 238 230 229 234 232 237
Height
10901 10909 10912 10917 10923 10932 10939 10948 10952 10960 10964 10976 10979 10984 10988 10994 10994 10998 11001 11003 11004 11006 11007 11004 11002 11003 11001 11000 11001 11003 11004 11007 11011 11012 11012 11014 11014 11015 11016 11016 11017 11018 11016 11016
10888 10893 10895 10905 10913 10920 10928 10936 10939 10948 10956 10964 10969 10972 10978 10987 10988 10993 10995 10997 10999 11002 11002 11002 10999 11000 10998 10999 10998 11001 11003 11006 11011 11012 11012 11014 11016 11016 11016 11018 11018 11019 11019 11020
10874 10873 10885 10895 10905 10911 10918 10924 10925 10932 10948 10955 10964 10968 10972 10978 10983 10987 10988 10993 10993 10996 10997 10998 10998 10998 10996 10996 10997 10999 11001 11005 11009 11012 11011 11014 11016 11018 11018 11018 11019 11019 11020 11021
10859 10863 10871 10881 10889 10897 10905 10909 10915 10919 10938 10945 10955 10960 10962 10970 10973 10978 10980 10985 10987 10990 10990 10991 10994 10995 10994 10995 10994 10996 10999 11003 11006 11010 11010 11013 11015 11018 11019 11019 11020 11021 11021 11022
10843 10849 10857 10867 10873 10883 10888 10897 10902 10907 10924 10934 10943 10949 10953 10959 10961 10965 10968 10975 10980 10982 10986 10986 10990 10992 10991 10993 10992 10994 10996 11001 11004 11008 11009 11011 11014 11017 11019 11020 11020 11021 11021 11023
10821 10831 10842 10849 10858 10873 10876 10886 10891 10899 10911 10923 10927 10935 10943 10943 10948 10952 10961 10967 10972 10976 10979 10981 10984 10987 10987 10990 10991 10993 10993 10997 11000 11004 11007 11009 11011 11014 11017 11019 11020 11021 11023 11022
10810 10819 10826 10832 10842 10851 10858 10868 10876 10885 10896 10909 10911 10923 10929 10927 10931 10939 10948 10959 10965 10967 10972 10976 10979 10984 10983 10988 10990 10992 10994 10995 10997 11001 11004 11007 11008 11011 11014 11017 11019 11021 11023 11023
10794 10801 10807 10823 10830 10835 10847 10855 10864 10874 10883 10893 10893 10914 10916 10914 10922 10930 10937 10948 10951 10959 10967 10970 10975 10979 10980 10985 10989 10990 10992 10993 10995 10997 11001 11004 11007 11009 11011 11014 11017 11019 11021 11022
10776 10778 10793 10802 10807 10821 10827 10836 10844 10860 10869 10878 10883 10899 10898 10898 10909 10916 10923 10936 10943 10950 10958 10962 10968 10972 10976 10977 10988 10990 10990 10991 10992 10994 10996 11000 11004 11007 11009 11012 11014 11016 11018 11020
10755 10756 10771 10777 10788 10799 10802 10813 10824 10838 10853 10864 10875 10882 10879 10880 10891 10900 10911 10923 10933 10942 10952 10956 10961 10965 10973 10974 10978 10987 10990 10989 10990 10990 10993 10995 10999 11003 11006 11009 11011 11013 11016 11018
10726 10730 10742 10750 10761 10772 10779 10786 10806 10824 10838 10849 10864 10866 10844 10868 10879 10891 10903 10914 10927 10937 10945 10950 10956 10961 10969 10973 10975 10978 10983 10987 10988 10988 10989 10990 10993 10997 11001 11005 11007 11009 11012 11015
10704 10709 10719 10731 10738 10748 10761 10766 10784 10802 10818 10829 10844 10832 10830 10848 10862 10878 10893 10903 10913 10927 10936 10946 10949 10953 10959 10965 10971 10975 10977 10979 10983 10988 10988 10987 10988 10991 10995 10999 11002 11004 11008 11010
10679 10691 10694 10705 10712 10724 10739 10748 10762 10781 10794 10805 10817 10809 10811 10826 10843 10866 10882 10897 10906 10917 10923 10930 10938 10946 10951 10956 10962 10966 10972 10975 10976 10979 10984 10984 10985 10986 10987 10992 10996 10998 11002 11006
10652 10664 10670 10675 10682 10697 10713 10722 10736 10755 10773 10786 10789 10796 10789 10800 10826 10850 10869 10887 10895 10901 10911 10920 10933 10940 10941 10948 10953 10960 10963 10968 10971 10971 10975 10980 10980 10982 10985 10988 10991 10994 10997 11001
10632 10640 10651 10654 10657 10666 10684 10700 10710 10731 10745 10756 10757 10770 10750 10783 10811 10832 10852 10866 10877 10889 10904 10921 10929 10930 10935 10936 10941 10948 10955 10959 10963 10967 10966 10974 10977 10978 10980 10982 10985 10988 10992 10994
10607 10614 10624 10627 10629 10637 10655 10675 10682 10700 10711 10713 10723 10743 10761 10779 10796 10814 10833 10847 10861 10874 10887 10901 10909 10911 10915 10918 10931 10942 10949 10953 10957 10961 10961 10964 10972 10975 10975 10976 10978 10982 10986 10990
10584 10584 10594 10600 10601 10609 10626 10645 10653 10664 10663 10686 10713 10726 10746 10754 10773 10794 10811 10829 10845 10860 10873 10880 10888 10897 10908 10916 10923 10933 10939 10945 10948 10952 10955 10954 10962 10969 10972 10972 10973 10974 10979 10984
10560 10564 10566 10572 10573 10583 10613 10605 10619 10632 10642 10668 10689 10710 10720 10731 10749 10764 10788 10811 10828 10841 10854 10863 10872 10886 10897 10907 10914 10920 10926 10930 10938 10943 10944 10947 10951 10961 10966 10969 10968 10969 10973 10977
10534 10537 10541 10545 10548 10561 10577 10573 10574 10596 10609 10636 10662 10685 10697 10707 10728 10735 10757 10784 10803 10821 10834 10844 10855 10869 10881 10892 10902 10907 10911 10920 10924 10932 10935 10940 10944 10948 10953 10959 10963 10964 10967 10971
10515 10514 10518 10522 10524 10532 10535 10545 10550 10562 10577 10603 10630 10652 10669 10679 10700 10706 10726 10754 10776 10794 10809 10821 10832 10845 10860 10875 10885 10887 10899 10903 10913 10918 10923 10929 10934 10939 10941 10948 10954 10959 10960 10964
10496 10496 10498 10499 10499 10503 10508 10516 10524 10536 10551 10568 10593 10614 10635 10650 10676 10690 10703 10721 10746 10765 10781 10793 10805 10820 10839 10856 10866 10873 10886 10894 10899 10904 10911 10918 10924 10929 10934 10939 10944 10949 10953 10957
10481 10479 10481 10481 10481 10483 10485 10493 10500 10507 10521 10535 10561 10583 10602 10627 10646 10663 10676 10692 10713 10740 10751 10764 10776 10794 10815 10833 10845 10857 10868 10875 10887 10893 10897 10906 10913 10919 10925 10928 10934 10938 10945 10949
10470 10468 10468 10466 10466 10467 10470 10472 10480 10486 10497 10511 10535 10554 10573 10600 10616 10634 10650 10670 10683 10707 10724 10740 10759 10775 10793 10810 10826 10838 10845 10857 10871 10877 10883 10890 10898 10904 10910 10916 10922 10929 10934 10939
10461 10458 10456 10455 10454 10454 10455 10458 10463 10466 10478 10493 10509 10530 10549 10570 10583 10604 10623 10643 10658 10673 10697 10714 10732 10750 10771 10791 10807 10818 10827 10838 10851 10857 10863 10871 10884 10889 10897 10905 10911 10917 10923 10929
10453 10451 10449 10446 10445 10443 10443 10446 10450 10453 10462 10474 10489 10506 10526 10541 10556 10573 10594 10613 10633 10646 10668 10689 10708 10725 10749 10768 10784 10797 10807 10820 10829 10837 10847 10858 10869 10879 10886 10891 10899 10904 10912 10919
10445 10443 10441 10438 10436 10434 10433 10434 10437 10441 10449 10458 10471 10485 10503 10519 10531 10547 10568 10586 10604 10624 10643 10664 10683 10702 10723 10742 10758 10772 10786 10800 10809 10819 10830 10842 10853 10862 10871 10880 10882 10890 10899 10906